Location: Fredericksburg
(30.2750°N, 98.8720°W)
Time: 00:29:17
(UTC-05:00)

Daily predictions for brighter satellites

Satellite Brightness Start Highest point End
(mag) Time Altitude Azimuth Time Altitude Azimuth Time Altitude Azimuth
Cosmos 2082 Rocket 4.0 00:05:29 10° NW 00:08:39 24° WNW 00:08:39 24° WNW
Terra 4.2 00:19:00 20° NW 00:19:00 20° NW 00:20:38 10° NNW
NOSS 3-1 (C) 4.3 00:17:48 10° NNW 00:24:23 64° N 00:24:23 64° N
USA 234 4.2 00:24:02 10° NNE 00:30:06 42° NW 00:31:10 39° WNW
H-2A R/B 4.3 00:32:29 20° WNW 00:32:29 20° WNW 00:34:41 10° NW
Cosmos 2369 Rocket 4.2 00:53:08 24° NNW 00:53:08 24° NNW 00:55:51 10° N
Cosmos 1943 Rocket 4.4 01:22:13 20° N 01:22:13 20° N 01:24:02 10° N
ATLAS 2AS CENTAUR R/B 4.0 02:00:52 10° NNW 02:05:36 40° NW 02:05:36 40° NW
Cosmos 2227 Rocket 3.9 02:51:03 10° N 02:53:53 28° N 02:53:53 28° N
Cosmos 2297 Rocket 3.6 03:11:58 10° N 03:15:22 34° NNE 03:15:22 34° NNE
NOSS 3-4 (A) 4.5 03:25:03 10° NNW 03:31:56 51° ENE 03:36:04 26° ESE
NOSS 3-4 (C) 4.5 03:25:09 10° NNW 03:32:04 51° ENE 03:36:31 24° ESE
ATLAS CENTAUR R/B 3.9 03:34:29 21° NNW 03:34:29 21° NNW 03:36:36 10° N
SL-16 R/B 4.3 03:32:03 16° ESE 03:32:13 16° E 03:35:36 10° ENE
Nadezhda 4 Rocket 4.2 03:46:10 10° N 03:52:16 67° E 03:52:16 67° E
CZ-2D R/B 2.9 03:52:42 10° NNE 03:57:38 47° E 03:57:38 47° E
Cosmos 540 Rocket 4.5 03:58:42 40° E 03:58:42 40° E 04:02:59 10° NNE
Meteor 1-24 Rocket 4.0 03:53:38 10° N 03:58:37 67° N 03:58:37 67° N
SL-16 R/B 3.3 03:59:05 31° SE 04:01:39 48° ENE 04:07:31 10° N
ARIANE 5 R/B 2.9 04:00:32 10° NNE 04:04:48 60° NNE 04:04:48 60° NNE
Cosmos 1697 Rocket 3.9 04:19:13 30° NW 04:19:13 30° NW 04:23:18 10° N
Cosmos 1953 3.8 04:20:15 34° N 04:20:15 34° N 04:22:37 10° N
ATLAS CENTAUR R/B 4.0 04:18:34 52° SSW 04:21:26 88° ESE 04:46:16 10° NE
Cosmos 1634 Rocket 3.8 04:25:23 71° SSW 04:26:08 86° W 04:32:26 10° N
Cosmos 1980 Rocket 2.8 04:28:07 43° NW 04:28:07 43° NW 04:33:03 10° N
Cosmos 2360 Rocket 4.4 04:25:10 11° SE 04:28:35 19° E 04:32:24 10° ENE
Resurs 1-4 Rocket 1.9 04:24:45 10° N 04:29:56 79° WNW 04:29:56 79° WNW
IRS-1D 3.9 04:33:06 10° N 04:37:26 49° NW 04:37:26 49° NW
Cosmos 2322 Rocket 2.1 04:39:52 63° S 04:40:49 84° ESE 04:46:26 10° NNE
Cosmos 332 Rocket 3.7 04:41:27 69° NW 04:41:27 69° NW 04:46:04 10° N
Cosmos 1092 Rocket 4.0 04:38:14 10° NNW 04:44:25 60° W 04:45:29 53° SW
Delta 142 4.5 04:44:18 55° SW 04:45:42 71° S 04:53:35 10° E
Meteor 1-21 Rocket 4.3 04:40:50 10° N 04:46:48 82° E 04:50:08 27° SSE
Cosmos 1500 Rocket 4.2 04:43:18 10° N 04:47:34 53° E 04:49:22 31° SE
Cosmos 1627 Rocket 4.4 04:46:30 10° N 04:52:46 86° W 04:56:18 28° S
Cosmos 1743 Rocket 3.3 04:49:06 10° N 04:53:28 82° W 04:53:41 78° SW
UNK 3.9 04:55:42 52° W 04:55:42 52° W 04:59:52 10° NNW
Cosmos-2242 4.4 04:56:47 26° NW 04:56:47 26° NW 04:59:24 10° NNW
Cosmos 2221 4.1 04:54:00 15° SSE 04:56:53 31° E 05:00:41 10° NNE
Cosmos 371 Rocket 3.2 04:59:12 59° WSW 04:59:55 69° WNW 05:04:43 10° N
Aureole 1 Rocket 4.0 05:01:14 43° SW 05:03:03 62° WNW 05:10:15 10° N
MTI 4.3 05:04:02 51° NNW 05:04:02 51° NNW 05:06:36 10° NNW
Cosmos 372 Rocket 4.2 04:58:30 10° N 05:03:35 68° ENE 05:08:38 10° SSE
Milstar 3 Cent rocket 2.3 05:02:11 42° WSW 05:04:02 72° S 05:12:13 10° ESE
Cosmos 1437 4.5 05:00:52 10° NNW 05:02:27 25° NNW 05:02:27 25° NNW
RESURS DK-1 2.9 05:00:39 10° NNW 05:04:43 58° ENE 05:08:46 10° SSE
Cosmos 1470 2.6 05:05:07 70° WSW 05:05:19 72° W 05:09:16 10° N
GPS 2-04 Rocket1 3.2 05:04:39 32° NW 05:06:13 56° NNE 05:10:02 10° E
USA 81 4.1 05:06:35 44° SW 05:07:54 56° W 05:13:06 10° N
CZ-2C R/B 4.2 05:05:28 10° SSE 05:10:06 63° ENE 05:14:40 10° N
Okean O Rocket 1.5 05:06:35 10° N 05:11:00 79° WNW 05:12:26 42° SSW
Delta 2 Rocket 3.3 05:13:39 48° SSE 05:13:51 48° SSE 05:17:31 10° ENE
SL-16 R/B 2.5 05:13:56 36° WSW 05:15:48 49° WNW 05:21:18 10° N
Cosmos 2279 Rocket 4.1 05:14:57 31° SW 05:17:48 55° W 05:23:55 10° N
PSLV R/B 3.9 05:19:18 10° N 05:22:58 49° WNW 05:23:37 43° WSW
Hubble Space Telescope 3.0 05:22:31 13° SSE 05:23:23 14° SSE 05:25:28 10° ESE
Abrixas 2.5 05:23:24 21° NW 05:25:19 78° NE 05:28:22 10° SE
Cosmos 1125 Rocket 3.9 05:20:38 10° NW 05:25:23 37° W 05:27:16 28° SW
DELTA 2 R/B (1) 4.0 05:22:53 25° W 05:26:01 54° NNW 05:31:29 10° ENE
OTV 4 2.8 05:26:06 13° SSE 05:26:31 14° SE 05:28:07 10° ESE
COSMOS 2428 4.4 05:22:51 10° SSE 05:27:40 30° ESE 05:32:31 10° NE
GPS 2-12 Rocket1 4.4 05:28:14 21° S 05:28:30 21° S 05:31:53 10° SE
PSLV R/B 4.5 05:25:35 10° NNE 05:29:40 46° E 05:33:47 10° S
Cosmos 2263 Rocket 3.4 05:25:51 10° N 05:31:08 43° ENE 05:36:23 10° SE
CZ-3A R/B 4.3 05:26:12 13° S 05:31:49 59° ESE 06:08:42 10° NE
Centaur D-1A AC-31 3.4 05:15:58 20° WSW 05:34:45 63° S 05:40:11 10° E
Cosmos 1461 2.8 05:31:35 10° NW 05:35:31 53° WSW 05:39:19 10° S
ADEOS II 3.1 05:30:33 10° NNE 05:35:36 46° E 05:40:37 10° S
Cosmos 2322 3.7 05:31:55 16° SSW 05:36:34 84° ESE 05:42:18 10° NNE
CZ-2D R/B 3.7 05:34:06 10° NNW 05:37:31 17° WNW 05:38:57 16° W
Cosmos 1733 4.0 05:37:05 29° WSW 05:37:49 31° W 05:41:13 10° NNW
CZ-4B R/B 3.4 05:37:35 10° N 05:42:53 51° WNW 05:46:52 17° SW
SL-16 R/B 3.7 05:44:10 19° WSW 05:45:24 20° W 05:49:47 10° NW
GEOS 3 Rocket 3.6 05:42:07 10° SSE 05:47:15 58° WSW 05:52:22 10° NW
CZ-4B R/B 3.3 05:44:20 10° N 05:47:51 38° WNW 05:49:45 21° SW
Cosmos 1805 Rocket 3.8 05:44:35 10° N 05:48:56 69° E 05:53:16 10° SSE
Meteor 1-16 Rocket 4.4 05:44:27 11° SSW 05:50:05 62° W 05:55:57 10° N
Cosmos 2266 Rocket 4.1 05:44:35 10° N 05:50:48 84° E 05:57:06 10° S
Meteor 2-20 Rocket 4.4 05:45:51 10° N 05:51:58 85° W 05:58:05 10° S
CZ-3 R/B 3.1 05:29:14 14° WSW 05:56:36 77° S 06:03:20 10° E
Cosmos 967 Rocket 4.4 05:51:42 10° NNW 05:58:01 73° WSW 06:04:14 10° SSE
Okean-O 2.6 05:55:38 10° N 06:00:03 70° WNW 06:04:27 10° SSW
Sich 1 3.8 05:55:49 10° N 06:00:04 55° E 06:04:20 10° SSE
Aureole 3 4.2 05:55:14 10° N 06:00:11 83° W 06:06:31 10° S
Cosmos 2151 3.5 05:57:13 10° NNW 06:01:14 39° W 06:05:12 10° SSW
Cosmos 1328 4.2 05:57:38 10° NNW 06:01:26 41° W 06:05:11 10° SSW
MOZ.5/SAFIR/RUBIN 5/SL-8 4.4 05:57:27 10° SSW 06:01:44 35° W 06:06:02 10° NNW
Cosmos 1680 Rocket 3.5 05:57:16 10° SSW 06:02:28 84° WNW 06:07:43 10° NNE
Cosmos 304 Rocket 3.9 05:57:59 11° SSW 06:02:31 58° WNW 06:07:15 10° N
Aurora 2 Rocket 3.7 06:05:24 12° SSW 06:06:06 13° SSW 06:07:35 10° SSE
Alouette 2 Rocket 3.7 06:02:31 10° N 06:06:23 85° E 06:11:46 10° S
USA 116 3.4 06:03:23 10° SSE 06:06:30 73° ENE 06:09:52 10° N
Delta 128 3.7 06:05:50 11° W 06:10:02 66° S 06:14:52 10° ESE
Thor Agena Rocket 3.8 06:05:53 10° S 06:10:39 43° W 06:15:28 10° NNW
CSL-04 DEB 4.4 06:07:10 10° N 06:11:03 57° WNW 06:14:56 10° SSW
Cosmos 1328 Rocket 3.9 06:06:48 10° S 06:11:13 71° E 06:15:37 10° N
Cosmos 2360 Rocket 2.7 06:06:59 11° SW 06:12:09 43° WNW 06:17:29 10° N
Cosmos 1666 Rocket 3.5 06:12:52 10° N 06:17:14 74° W 06:21:32 10° S
Cosmos 405 3.2 06:17:09 10° S 06:20:44 75° E 06:24:21 10° N
Lacrosse 4 Rocket 3.5 06:18:39 10° SSE 06:22:09 27° ESE 06:25:45 10° NE
Cosmos 2322 Rocket 4.2 06:24:30 10° WNW 06:25:29 10° NW 06:26:27 10° NW
Meteor PRIRODA 4.2 06:23:02 10° N 06:26:29 40° WNW 06:29:57 10° SW
Cosmos 2237 Rocket 4.1 06:22:44 10° SSE 06:27:37 31° ESE 06:32:32 10° NE
MOS 1 Rocket 3.9 06:23:35 10° NNE 06:28:25 62° E 06:32:55 10° S
S3M 4.4 06:23:53 10° S 06:29:55 68° E 06:35:58 10° NNE
Cosmos 292 Rocket 4.5 06:26:09 10° S 06:30:48 57° ESE 06:35:28 10° NNE
